Tracking 28888 objects as of 22-May-2024
HD Live streaming from Space Station
objects crossing your sky now

COSMOS 839 DEB

Track COSMOS 839 DEB now!
10-day predictions


NORAD ID: 13501
Int'l Code: 1976-067BB
Perigee: 1,032.9 km
Apogee: 2,001.2 km
Inclination: 66.0 °
Period: 116.2 minutes
Semi major axis: 7888 km
RCS: 0.0403 m2 (small)
Launch date: July 8, 1976
Source: Commonwealth of Independent States (former USSR) (CIS)
Launch site: PLESETSK MISSILE AND SPACE COMPLEX (PKMTR)

Note: This is SATELLITE DEBRIS
Your satellite tracking list
Your tracking list is empty




NASA's NSSDC Master Catalog

Two Line Element Set (TLE):
1 13501U 76067BB  24142.44245341  .00000433  00000-0  19145-2 0  9998
2 13501  66.0330 197.3981 0613771  92.0153  10.3815 12.39227571947167
Source of the keplerian elements: AFSPC